Time,TemperatureF,DewpointF,PressureIn,WindDirection,WindDirectionDegrees,WindSpeedMPH,WindSpeedGustMPH,Humidity,HourlyPrecipIn,Conditions,Clouds,dailyrainin,SoftwareType,DateUTC
2013-08-08 00:01:00,66.4,52.3,30.12,SSE,155,0.0,1.0,81,0.00,,,0.00,meteohub,2013-08-08 04:01:00,
2013-08-08 00:06:00,66.4,52.3,30.12,SSE,155,0.0,4.0,81,0.00,,,0.00,meteohub,2013-08-08 04:06:00,
2013-08-08 00:12:00,66.2,52.3,30.12,SSE,155,0.0,4.0,81,0.00,,,0.00,meteohub,2013-08-08 04:12:00,
2013-08-08 00:17:00,66.2,52.3,30.12,SSE,155,0.0,1.0,81,0.00,,,0.00,meteohub,2013-08-08 04:17:00,
2013-08-08 00:22:00,66.0,52.3,30.12,SSE,155,0.0,1.0,81,0.00,,,0.00,meteohub,2013-08-08 04:22:00,
2013-08-08 00:27:00,66.0,52.3,30.11,SSE,155,0.0,1.0,81,0.00,,,0.00,meteohub,2013-08-08 04:27:00,
2013-08-08 00:32:00,66.0,52.3,30.11,SSE,159,1.0,1.0,81,0.00,,,0.00,meteohub,2013-08-08 04:32:00,
2013-08-08 00:37:00,65.8,52.2,30.11,West,271,0.0,4.0,82,0.00,,,0.00,meteohub,2013-08-08 04:37:00,
2013-08-08 00:42:00,65.8,52.2,30.10,West,271,0.0,4.0,82,0.00,,,0.00,meteohub,2013-08-08 04:42:00,
2013-08-08 00:47:00,65.8,52.2,30.10,West,271,0.0,4.0,82,0.00,,,0.00,meteohub,2013-08-08 04:47:00,
2013-08-08 00:52:00,65.8,52.2,30.10,SSW,203,1.0,2.0,82,0.00,,,0.00,meteohub,2013-08-08 04:52:00,
2013-08-08 00:57:00,65.7,52.2,30.10,SE,142,1.0,3.0,82,0.00,,,0.00,meteohub,2013-08-08 04:57:00,
2013-08-08 01:02:00,65.7,52.2,30.09,ENE,60,0.0,3.0,83,0.00,,,0.00,meteohub,2013-08-08 05:02:00,
2013-08-08 01:07:00,65.7,52.2,30.10,NE,38,1.0,3.0,82,0.00,,,0.00,meteohub,2013-08-08 05:07:00,
2013-08-08 01:12:00,65.7,52.2,30.10,NNW,339,0.0,4.0,83,0.00,,,0.00,meteohub,2013-08-08 05:12:00,
2013-08-08 01:17:00,65.8,52.2,30.10,NNW,338,0.0,4.0,83,0.00,,,0.00,meteohub,2013-08-08 05:17:00,
2013-08-08 01:22:00,65.7,52.2,30.10,NNW,338,0.0,4.0,83,0.00,,,0.00,meteohub,2013-08-08 05:22:00,
2013-08-08 01:27:00,65.8,52.2,30.09,NNW,340,0.0,1.0,83,0.00,,,0.00,meteohub,2013-08-08 05:27:00,
2013-08-08 01:32:00,65.8,52.2,30.09,NNW,340,0.0,1.0,83,0.00,,,0.00,meteohub,2013-08-08 05:32:00,
2013-08-08 01:37:00,65.8,52.2,30.09,South,172,1.0,2.0,83,0.00,,,0.00,meteohub,2013-08-08 05:37:00,
2013-08-08 01:42:00,65.8,52.2,30.09,South,171,0.0,2.0,83,0.00,,,0.00,meteohub,2013-08-08 05:42:00,
2013-08-08 01:47:00,65.8,52.2,30.09,SE,139,0.0,2.0,83,0.00,,,0.00,meteohub,2013-08-08 05:47:00,
2013-08-08 01:52:00,65.8,52.2,30.09,SE,138,0.0,2.0,83,0.00,,,0.00,meteohub,2013-08-08 05:52:00,
2013-08-08 01:57:00,65.8,52.2,30.09,ESE,113,0.0,2.0,83,0.00,,,0.00,meteohub,2013-08-08 05:57:00,
2013-08-08 02:02:00,65.8,52.2,30.09,ESE,115,0.0,3.0,83,0.00,,,0.00,meteohub,2013-08-08 06:02:00,
2013-08-08 02:07:00,65.8,52.2,30.09,North,355,0.0,3.0,83,0.00,,,0.00,meteohub,2013-08-08 06:07:00,
2013-08-08 02:12:00,66.0,52.2,30.09,North,355,0.0,3.0,83,0.00,,,0.00,meteohub,2013-08-08 06:12:00,
2013-08-08 02:17:00,66.0,52.2,30.09,North,355,0.0,1.0,84,0.00,,,0.00,meteohub,2013-08-08 06:17:00,
2013-08-08 02:22:00,66.0,52.2,30.08,North,355,0.0,1.0,83,0.00,,,0.00,meteohub,2013-08-08 06:22:00,
2013-08-08 02:27:00,66.0,52.2,30.08,North,5,0.0,1.0,84,0.00,,,0.00,meteohub,2013-08-08 06:27:00,
2013-08-08 02:32:00,66.0,52.2,30.08,North,0,0.0,1.0,84,0.00,,,0.00,meteohub,2013-08-08 06:32:00,
2013-08-08 02:37:00,66.0,52.2,30.08,North,5,0.0,1.0,84,0.00,,,0.00,meteohub,2013-08-08 06:37:00,
2013-08-08 02:42:00,66.0,52.2,30.08,NNW,346,0.0,5.0,84,0.00,,,0.00,meteohub,2013-08-08 06:42:00,
2013-08-08 02:47:00,66.0,52.2,30.08,NW,310,0.0,5.0,84,0.00,,,0.00,meteohub,2013-08-08 06:47:00,
2013-08-08 02:52:00,66.0,52.2,30.09,South,184,0.0,5.0,84,0.00,,,0.00,meteohub,2013-08-08 06:52:00,
2013-08-08 02:57:00,66.2,52.2,30.09,South,184,0.0,4.0,84,0.00,,,0.00,meteohub,2013-08-08 06:57:00,
2013-08-08 03:02:00,66.2,52.2,30.08,South,184,0.0,4.0,84,0.00,,,0.00,meteohub,2013-08-08 07:02:00,
2013-08-08 03:07:00,66.2,52.2,30.08,South,184,0.0,1.0,84,0.00,,,0.00,meteohub,2013-08-08 07:07:00,
2013-08-08 03:12:00,66.4,52.0,30.08,NNW,338,0.0,0.0,84,0.00,,,0.00,meteohub,2013-08-08 07:12:00,
2013-08-08 03:17:00,66.4,52.0,30.08,NNW,338,0.0,2.0,84,0.00,,,0.00,meteohub,2013-08-08 07:17:00,
2013-08-08 03:22:00,66.4,52.0,30.08,NNW,339,0.0,2.0,85,0.00,,,0.00,meteohub,2013-08-08 07:22:00,
2013-08-08 03:27:00,66.4,52.0,30.08,NNW,339,0.0,2.0,84,0.00,,,0.00,meteohub,2013-08-08 07:27:00,
2013-08-08 03:32:00,66.4,52.0,30.08,South,178,0.0,2.0,85,0.00,,,0.00,meteohub,2013-08-08 07:32:00,
2013-08-08 03:37:00,66.4,52.0,30.08,South,178,0.0,1.0,85,0.00,,,0.00,meteohub,2013-08-08 07:37:00,
2013-08-08 03:42:00,66.4,52.0,30.08,South,178,0.0,1.0,85,0.00,,,0.00,meteohub,2013-08-08 07:42:00,
2013-08-08 03:47:00,66.4,52.0,30.07,South,182,0.0,1.0,85,0.00,,,0.00,meteohub,2013-08-08 07:47:00,
2013-08-08 03:52:00,66.4,52.0,30.07,West,281,0.0,1.0,85,0.00,,,0.00,meteohub,2013-08-08 07:52:00,
2013-08-08 03:57:00,66.4,52.0,30.07,West,281,0.0,1.0,85,0.00,,,0.00,meteohub,2013-08-08 07:57:00,
2013-08-08 04:02:00,66.6,52.0,30.07,West,281,0.0,1.0,85,0.00,,,0.00,meteohub,2013-08-08 08:02:00,
2013-08-08 04:07:00,66.6,52.0,30.07,West,280,0.0,1.0,85,0.00,,,0.00,meteohub,2013-08-08 08:07:00,
2013-08-08 04:12:00,66.6,52.0,30.07,West,281,0.0,0.0,86,0.00,,,0.00,meteohub,2013-08-08 08:12:00,
2013-08-08 04:17:00,66.6,52.0,30.07,West,281,0.0,1.0,86,0.00,,,0.00,meteohub,2013-08-08 08:17:00,
2013-08-08 04:22:00,66.6,52.0,30.07,West,272,0.0,1.0,86,0.00,,,0.00,meteohub,2013-08-08 08:22:00,
2013-08-08 04:27:00,66.6,52.0,30.06,NNW,344,0.0,1.0,86,0.00,,,0.00,meteohub,2013-08-08 08:27:00,
2013-08-08 04:32:00,66.6,52.0,30.06,South,169,0.0,2.0,86,0.00,,,0.00,meteohub,2013-08-08 08:32:00,
2013-08-08 04:37:00,66.6,52.0,30.06,SSE,167,0.0,2.0,86,0.00,,,0.00,meteohub,2013-08-08 08:37:00,
2013-08-08 04:42:00,66.6,52.0,30.06,ESE,118,0.0,3.0,86,0.00,,,0.00,meteohub,2013-08-08 08:42:00,
2013-08-08 04:47:00,66.6,52.0,30.06,East,80,0.0,3.0,86,0.00,,,0.00,meteohub,2013-08-08 08:47:00,
2013-08-08 04:52:00,66.7,52.0,30.06,East,80,0.0,3.0,86,0.00,,,0.00,meteohub,2013-08-08 08:52:00,
2013-08-08 04:57:00,66.7,52.0,30.06,ENE,76,0.0,1.0,87,0.00,,,0.00,meteohub,2013-08-08 08:57:00,
2013-08-08 05:02:00,66.6,52.0,30.06,ENE,76,0.0,1.0,88,0.00,,,0.00,meteohub,2013-08-08 09:02:00,
2013-08-08 05:07:00,66.4,52.5,30.06,ENE,75,0.0,1.0,88,0.00,,,0.00,meteohub,2013-08-08 09:07:00,
2013-08-08 05:12:00,66.4,52.5,30.06,ENE,76,0.0,1.0,89,0.00,,,0.00,meteohub,2013-08-08 09:12:00,
2013-08-08 05:17:00,66.2,52.5,30.06,ENE,75,0.0,0.0,90,0.00,,,0.00,meteohub,2013-08-08 09:17:00,
2013-08-08 05:22:00,66.0,52.5,30.06,ENE,76,0.0,1.0,90,0.00,,,0.00,meteohub,2013-08-08 09:22:00,
2013-08-08 05:27:00,66.0,52.5,30.06,ENE,76,0.0,1.0,90,0.00,,,0.00,meteohub,2013-08-08 09:27:00,
2013-08-08 05:32:00,65.8,52.5,30.06,ENE,75,0.0,1.0,91,0.00,,,0.00,meteohub,2013-08-08 09:32:00,
2013-08-08 05:37:00,65.7,52.5,30.06,ENE,76,0.0,1.0,92,0.01,,,0.01,meteohub,2013-08-08 09:37:00,
2013-08-08 05:42:00,65.5,52.5,30.06,ENE,76,0.0,1.0,92,0.02,,,0.02,meteohub,2013-08-08 09:42:00,
2013-08-08 05:47:00,65.5,52.5,30.06,ENE,76,0.0,1.0,93,0.03,,,0.03,meteohub,2013-08-08 09:47:00,
2013-08-08 05:52:00,65.3,52.5,30.06,ENE,75,0.0,1.0,93,0.05,,,0.05,meteohub,2013-08-08 09:52:00,
2013-08-08 05:57:00,65.1,52.5,30.06,ENE,75,0.0,1.0,93,0.06,,,0.06,meteohub,2013-08-08 09:57:00,
2013-08-08 06:02:00,65.1,52.5,30.06,ENE,76,0.0,2.0,94,0.07,,,0.07,meteohub,2013-08-08 10:02:00,
2013-08-08 06:07:00,65.1,52.5,30.06,ENE,75,0.0,2.0,94,0.08,,,0.08,meteohub,2013-08-08 10:07:00,
2013-08-08 06:12:00,65.1,52.5,30.06,ENE,76,0.0,2.0,94,0.09,,,0.09,meteohub,2013-08-08 10:12:00,
2013-08-08 06:17:00,65.1,52.5,30.06,ENE,76,0.0,0.0,94,0.10,,,0.10,meteohub,2013-08-08 10:17:00,
2013-08-08 06:22:00,65.1,52.5,30.06,ENE,72,0.0,0.0,95,0.10,,,0.10,meteohub,2013-08-08 10:22:00,
2013-08-08 06:27:00,64.9,52.5,30.06,ENE,73,0.0,2.0,95,0.11,,,0.11,meteohub,2013-08-08 10:27:00,
2013-08-08 06:32:00,65.1,52.5,30.05,ENE,58,0.0,2.0,95,0.12,,,0.12,meteohub,2013-08-08 10:32:00,
2013-08-08 06:37:00,65.1,52.5,30.06,ESE,108,0.0,2.0,95,0.12,,,0.13,meteohub,2013-08-08 10:37:00,
2013-08-08 06:42:00,65.1,52.5,30.06,ESE,106,0.0,2.0,95,0.10,,,0.13,meteohub,2013-08-08 10:42:00,
2013-08-08 06:47:00,65.3,52.5,30.06,ESE,106,0.0,1.0,95,0.10,,,0.14,meteohub,2013-08-08 10:47:00,
2013-08-08 06:52:00,65.5,52.5,30.06,ESE,106,0.0,1.0,95,0.10,,,0.15,meteohub,2013-08-08 10:52:00,
2013-08-08 06:57:00,65.5,52.5,30.06,ESE,106,0.0,1.0,95,0.09,,,0.15,meteohub,2013-08-08 10:57:00,
2013-08-08 07:02:00,65.7,52.5,30.06,SSE,161,0.0,0.0,96,0.09,,,0.16,meteohub,2013-08-08 11:02:00,
2013-08-08 07:07:00,65.5,52.5,30.06,SSE,161,0.0,2.0,95,0.08,,,0.16,meteohub,2013-08-08 11:07:00,
2013-08-08 07:12:00,65.7,52.5,30.06,SSE,161,0.0,2.0,95,0.07,,,0.16,meteohub,2013-08-08 11:12:00,
2013-08-08 07:17:00,65.7,52.5,30.06,SSE,157,0.0,2.0,96,0.07,,,0.17,meteohub,2013-08-08 11:17:00,
2013-08-08 07:22:00,66.0,52.5,30.06,SSE,157,0.0,1.0,96,0.06,,,0.17,meteohub,2013-08-08 11:22:00,
2013-08-08 07:27:00,66.2,52.5,30.06,SSE,157,0.0,1.0,96,0.05,,,0.17,meteohub,2013-08-08 11:27:00,
2013-08-08 07:32:00,66.4,52.5,30.06,SSE,157,0.0,4.0,96,0.05,,,0.17,meteohub,2013-08-08 11:32:00,
2013-08-08 07:37:00,66.6,52.5,30.05,SSE,157,0.0,4.0,96,0.04,,,0.17,meteohub,2013-08-08 11:37:00,
2013-08-08 07:42:00,66.6,52.5,30.05,SSE,157,0.0,4.0,96,0.03,,,0.17,meteohub,2013-08-08 11:42:00,
2013-08-08 07:47:00,66.7,52.5,30.06,NNE,30,0.0,0.0,96,0.03,,,0.17,meteohub,2013-08-08 11:47:00,
2013-08-08 07:52:00,66.7,52.5,30.06,NNW,340,1.0,2.0,96,0.02,,,0.17,meteohub,2013-08-08 11:52:00,
2013-08-08 07:57:00,66.7,52.5,30.06,NNW,340,0.0,2.0,96,0.02,,,0.17,meteohub,2013-08-08 11:57:00,
2013-08-08 08:02:00,66.7,52.5,30.06,NNW,340,0.0,2.0,96,0.01,,,0.17,meteohub,2013-08-08 12:02:00,
2013-08-08 08:07:00,66.7,52.5,30.06,WNW,298,0.0,1.0,96,0.01,,,0.17,meteohub,2013-08-08 12:07:00,
2013-08-08 08:12:00,66.9,52.5,30.06,WNW,298,0.0,2.0,96,0.01,,,0.17,meteohub,2013-08-08 12:12:00,
2013-08-08 08:17:00,66.9,52.5,30.06,WNW,298,0.0,2.0,96,0.00,,,0.17,meteohub,2013-08-08 12:17:00,
2013-08-08 08:22:00,67.3,52.5,30.06,WNW,298,0.0,2.0,96,0.00,,,0.17,meteohub,2013-08-08 12:22:00,
2013-08-08 08:27:00,67.3,52.5,30.06,WNW,298,0.0,0.0,96,0.00,,,0.17,meteohub,2013-08-08 12:27:00,
2013-08-08 08:32:00,67.3,52.5,30.06,WNW,298,0.0,1.0,96,0.00,,,0.17,meteohub,2013-08-08 12:32:00,
2013-08-08 08:37:00,67.3,52.5,30.06,WNW,298,0.0,1.0,96,0.00,,,0.17,meteohub,2013-08-08 12:37:00,
2013-08-08 08:42:00,67.5,52.5,30.06,WNW,298,0.0,0.0,96,0.00,,,0.17,meteohub,2013-08-08 12:42:00,
2013-08-08 08:47:00,67.6,52.5,30.06,WNW,298,0.0,1.0,96,0.00,,,0.17,meteohub,2013-08-08 12:47:00,
2013-08-08 08:52:00,67.8,52.5,30.06,WNW,298,0.0,1.0,97,0.00,,,0.17,meteohub,2013-08-08 12:52:00,
2013-08-08 08:57:00,68.0,52.5,30.06,WNW,298,0.0,0.0,97,0.00,,,0.17,meteohub,2013-08-08 12:57:00,
2013-08-08 09:02:00,68.4,52.5,30.06,WNW,298,0.0,1.0,97,0.00,,,0.17,meteohub,2013-08-08 13:02:00,
2013-08-08 09:07:00,68.7,52.5,30.06,WNW,298,0.0,2.0,97,0.00,,,0.17,meteohub,2013-08-08 13:07:00,
2013-08-08 09:12:00,69.3,52.5,30.06,WSW,257,0.0,2.0,97,0.00,,,0.17,meteohub,2013-08-08 13:12:00,
2013-08-08 09:17:00,69.6,52.5,30.06,ENE,59,0.0,2.0,97,0.00,,,0.17,meteohub,2013-08-08 13:17:00,
2013-08-08 09:22:00,70.0,52.5,30.06,East,86,0.0,2.0,97,0.00,,,0.17,meteohub,2013-08-08 13:22:00,
2013-08-08 09:27:00,70.3,52.5,30.06,East,84,0.0,2.0,97,0.00,,,0.17,meteohub,2013-08-08 13:27:00,
2013-08-08 09:32:00,70.7,52.5,30.07,WNW,284,0.0,2.0,97,0.00,,,0.17,meteohub,2013-08-08 13:32:00,
2013-08-08 09:37:00,70.9,52.5,30.07,ENE,68,0.0,2.0,96,0.00,,,0.17,meteohub,2013-08-08 13:37:00,
2013-08-08 09:42:00,70.7,52.5,30.07,ENE,67,1.0,3.0,96,0.00,,,0.17,meteohub,2013-08-08 13:42:00,
2013-08-08 09:47:00,70.5,52.7,30.07,NE,51,0.0,3.0,95,0.00,,,0.17,meteohub,2013-08-08 13:47:00,
2013-08-08 09:52:00,70.5,52.7,30.06,NE,51,0.0,3.0,95,0.00,,,0.17,meteohub,2013-08-08 13:52:00,
2013-08-08 09:57:00,70.5,52.7,30.06,NE,51,0.0,1.0,95,0.00,,,0.17,meteohub,2013-08-08 13:57:00,
2013-08-08 10:02:00,70.7,52.9,30.06,NE,51,0.0,1.0,95,0.00,,,0.17,meteohub,2013-08-08 14:02:00,
2013-08-08 10:07:00,70.5,52.9,30.06,SE,139,0.0,2.0,95,0.00,,,0.17,meteohub,2013-08-08 14:07:00,
2013-08-08 10:12:00,70.9,52.9,30.06,SE,136,0.0,2.0,95,0.00,,,0.17,meteohub,2013-08-08 14:12:00,
2013-08-08 10:17:00,71.1,53.1,30.06,SE,136,0.0,2.0,95,0.00,,,0.17,meteohub,2013-08-08 14:17:00,
2013-08-08 10:22:00,71.1,53.1,30.07,SE,136,0.0,1.0,95,0.00,,,0.17,meteohub,2013-08-08 14:22:00,
2013-08-08 10:27:00,71.2,53.1,30.07,NNW,333,0.0,1.0,95,0.00,,,0.17,meteohub,2013-08-08 14:27:00,
2013-08-08 10:32:00,71.8,53.1,30.07,North,11,0.0,4.0,95,0.00,,,0.17,meteohub,2013-08-08 14:32:00,
2013-08-08 10:37:00,71.8,53.1,30.07,NNW,331,1.0,4.0,94,0.00,,,0.17,meteohub,2013-08-08 14:37:00,
2013-08-08 10:42:00,72.0,53.2,30.07,NNW,329,0.0,4.0,94,0.00,,,0.17,meteohub,2013-08-08 14:42:00,
2013-08-08 10:47:00,72.0,53.2,30.07,WNW,303,1.0,2.0,93,0.00,,,0.17,meteohub,2013-08-08 14:47:00,
2013-08-08 10:52:00,72.0,53.2,30.06,WNW,294,0.0,2.0,93,0.00,,,0.17,meteohub,2013-08-08 14:52:00,
2013-08-08 10:57:00,72.3,53.4,30.06,WNW,294,0.0,2.0,93,0.00,,,0.17,meteohub,2013-08-08 14:57:00,
2013-08-08 11:02:00,72.7,53.4,30.06,WNW,296,0.0,2.0,93,0.00,,,0.17,meteohub,2013-08-08 15:02:00,
2013-08-08 11:07:00,73.4,53.4,30.06,SW,219,0.0,4.0,93,0.00,,,0.17,meteohub,2013-08-08 15:07:00,
2013-08-08 11:12:00,73.9,53.6,30.06,WNW,290,0.0,4.0,91,0.00,,,0.17,meteohub,2013-08-08 15:12:00,
2013-08-08 11:17:00,74.1,53.6,30.05,WNW,290,0.0,3.0,91,0.00,,,0.17,meteohub,2013-08-08 15:17:00,
2013-08-08 11:22:00,74.5,53.6,30.04,WSW,253,0.0,2.0,90,0.00,,,0.17,meteohub,2013-08-08 15:22:00,
2013-08-08 11:27:00,74.5,53.6,30.04,NW,320,0.0,2.0,89,0.00,,,0.17,meteohub,2013-08-08 15:27:00,
2013-08-08 11:32:00,74.7,53.8,30.04,NW,317,1.0,3.0,89,0.00,,,0.17,meteohub,2013-08-08 15:32:00,
2013-08-08 11:37:00,74.8,53.8,30.04,ENE,59,0.0,4.0,89,0.00,,,0.17,meteohub,2013-08-08 15:37:00,
2013-08-08 11:42:00,74.8,53.8,30.04,SE,130,1.0,4.0,88,0.00,,,0.17,meteohub,2013-08-08 15:42:00,
2013-08-08 11:47:00,74.8,53.8,30.05,NW,326,1.0,4.0,88,0.00,,,0.17,meteohub,2013-08-08 15:47:00,
2013-08-08 11:53:00,74.8,54.0,30.05,NNW,336,2.0,5.0,88,0.00,,,0.17,meteohub,2013-08-08 15:53:00,
2013-08-08 11:58:00,74.7,54.0,30.05,WSW,254,2.0,6.0,87,0.00,,,0.17,meteohub,2013-08-08 15:58:00,
2013-08-08 12:03:00,75.0,54.0,30.04,South,169,0.0,6.0,89,0.00,,,0.17,meteohub,2013-08-08 16:03:00,
2013-08-08 12:08:00,75.0,54.0,30.04,SE,133,0.0,6.0,88,0.00,,,0.17,meteohub,2013-08-08 16:08:00,
2013-08-08 12:13:00,75.4,54.0,30.04,NW,313,1.0,5.0,88,0.00,,,0.17,meteohub,2013-08-08 16:13:00,
2013-08-08 12:18:00,75.4,54.0,30.04,SE,129,0.0,2.0,87,0.00,,,0.17,meteohub,2013-08-08 16:18:00,
2013-08-08 12:23:00,75.7,54.0,30.04,NW,310,0.0,5.0,88,0.00,,,0.17,meteohub,2013-08-08 16:23:00,
2013-08-08 12:28:00,76.5,54.0,30.04,NW,310,0.0,5.0,87,0.00,,,0.17,meteohub,2013-08-08 16:28:00,
2013-08-08 12:33:00,76.6,54.0,30.04,NW,315,0.0,5.0,85,0.00,,,0.17,meteohub,2013-08-08 16:33:00,
2013-08-08 12:38:00,76.6,54.0,30.04,NW,306,0.0,2.0,84,0.00,,,0.17,meteohub,2013-08-08 16:38:00,
2013-08-08 12:43:00,76.5,54.1,30.04,NW,322,0.0,8.0,84,0.00,,,0.17,meteohub,2013-08-08 16:43:00,
2013-08-08 12:48:00,76.3,54.1,30.04,NNW,341,0.0,8.0,84,0.00,,,0.17,meteohub,2013-08-08 16:48:00,
2013-08-08 12:53:00,76.3,54.1,30.05,NNW,340,1.0,8.0,85,0.00,,,0.17,meteohub,2013-08-08 16:53:00,
2013-08-08 12:58:00,75.7,54.1,30.05,NNW,334,0.0,7.0,85,0.00,,,0.17,meteohub,2013-08-08 16:58:00,
2013-08-08 13:03:00,75.4,54.3,30.05,NNW,334,0.0,5.0,86,0.00,,,0.17,meteohub,2013-08-08 17:03:00,
2013-08-08 13:08:00,75.0,54.3,30.05,WNW,286,0.0,5.0,87,0.00,,,0.17,meteohub,2013-08-08 17:08:00,
2013-08-08 13:13:00,75.0,54.3,30.05,WNW,286,0.0,2.0,87,0.00,,,0.17,meteohub,2013-08-08 17:13:00,
2013-08-08 13:18:00,75.0,54.3,30.05,WNW,287,0.0,2.0,87,0.00,,,0.17,meteohub,2013-08-08 17:18:00,
2013-08-08 13:23:00,75.0,54.3,30.05,WNW,302,0.0,2.0,87,0.00,,,0.17,meteohub,2013-08-08 17:23:00,
2013-08-08 13:28:00,75.0,54.3,30.05,WNW,302,0.0,4.0,87,0.00,,,0.17,meteohub,2013-08-08 17:28:00,
2013-08-08 13:33:00,74.8,54.3,30.05,West,260,0.0,4.0,87,0.00,,,0.17,meteohub,2013-08-08 17:33:00,
2013-08-08 13:38:00,74.8,54.3,30.06,West,260,0.0,4.0,87,0.00,,,0.17,meteohub,2013-08-08 17:38:00,
2013-08-08 13:43:00,74.7,54.3,30.05,West,260,0.0,2.0,87,0.00,,,0.17,meteohub,2013-08-08 17:43:00,
2013-08-08 13:48:00,74.7,54.5,30.05,West,260,0.0,2.0,88,0.00,,,0.17,meteohub,2013-08-08 17:48:00,
2013-08-08 13:53:00,74.7,53.8,30.05,NW,319,0.0,1.0,88,0.00,,,0.17,meteohub,2013-08-08 17:53:00,
2013-08-08 13:58:00,75.0,53.8,30.05,NW,319,0.0,2.0,87,0.00,,,0.17,meteohub,2013-08-08 17:58:00,
2013-08-08 14:03:00,75.4,53.8,30.05,SE,144,0.0,2.0,86,0.00,,,0.17,meteohub,2013-08-08 18:03:00,
2013-08-08 14:08:00,75.7,53.8,30.04,West,261,0.0,2.0,86,0.00,,,0.17,meteohub,2013-08-08 18:08:00,
2013-08-08 14:13:00,76.5,54.0,30.04,NW,304,0.0,7.0,85,0.00,,,0.17,meteohub,2013-08-08 18:13:00,
2013-08-08 14:18:00,77.2,54.0,30.04,NW,305,0.0,7.0,85,0.00,,,0.17,meteohub,2013-08-08 18:18:00,
2013-08-08 14:23:00,77.5,54.0,30.04,NW,304,2.0,7.0,84,0.00,,,0.17,meteohub,2013-08-08 18:23:00,
2013-08-08 14:28:00,77.7,54.0,30.04,WNW,300,1.0,4.0,84,0.00,,,0.17,meteohub,2013-08-08 18:28:00,
2013-08-08 14:33:00,78.4,54.0,30.04,SSE,161,0.0,4.0,82,0.00,,,0.17,meteohub,2013-08-08 18:33:00,
2013-08-08 14:38:00,78.6,54.3,30.03,SSE,150,1.0,4.0,81,0.00,,,0.17,meteohub,2013-08-08 18:38:00,
2013-08-08 14:43:00,79.0,54.3,30.04,ENE,78,1.0,2.0,80,0.00,,,0.17,meteohub,2013-08-08 18:43:00,
2013-08-08 14:48:00,78.6,54.3,30.03,ENE,78,0.0,4.0,81,0.00,,,0.17,meteohub,2013-08-08 18:48:00,
2013-08-08 14:53:00,78.6,54.3,30.03,East,91,0.0,4.0,80,0.00,,,0.17,meteohub,2013-08-08 18:53:00,
2013-08-08 14:58:00,78.8,54.3,30.03,WNW,286,4.0,4.0,79,0.00,,,0.17,meteohub,2013-08-08 18:58:00,
2013-08-08 15:04:00,79.2,54.3,30.04,WSW,242,5.0,5.0,81,0.00,,,0.17,meteohub,2013-08-08 19:04:00,
2013-08-08 15:09:00,79.0,54.3,30.04,NNW,329,1.0,4.0,80,0.00,,,0.17,meteohub,2013-08-08 19:09:00,
2013-08-08 15:14:00,78.6,54.3,30.03,NNW,329,0.0,7.0,81,0.00,,,0.17,meteohub,2013-08-08 19:14:00,
2013-08-08 15:19:00,78.6,54.3,30.03,NW,310,0.0,7.0,81,0.00,,,0.17,meteohub,2013-08-08 19:19:00,
2013-08-08 15:24:00,78.6,54.3,30.03,East,93,1.0,4.0,81,0.00,,,0.17,meteohub,2013-08-08 19:24:00,
2013-08-08 15:29:00,79.3,54.3,30.03,WNW,284,2.0,4.0,79,0.00,,,0.17,meteohub,2013-08-08 19:29:00,
2013-08-08 15:34:00,80.2,54.5,30.03,NW,325,0.0,6.0,77,0.00,,,0.17,meteohub,2013-08-08 19:34:00,
2013-08-08 15:39:00,80.4,54.5,30.03,NNW,329,0.0,6.0,78,0.00,,,0.17,meteohub,2013-08-08 19:39:00,
2013-08-08 15:44:00,80.4,54.5,30.03,NW,318,5.0,6.0,78,0.00,,,0.17,meteohub,2013-08-08 19:44:00,
2013-08-08 15:49:00,80.1,54.5,30.03,SSE,167,0.0,4.0,78,0.00,,,0.17,meteohub,2013-08-08 19:49:00,
2013-08-08 15:54:00,80.1,54.5,30.02,South,172,0.0,6.0,79,0.00,,,0.17,meteohub,2013-08-08 19:54:00,
2013-08-08 15:59:00,80.1,54.5,30.02,NNW,348,0.0,6.0,79,0.00,,,0.17,meteohub,2013-08-08 19:59:00,
2013-08-08 16:04:00,80.8,54.5,30.02,NW,309,4.0,4.0,78,0.00,,,0.17,meteohub,2013-08-08 20:04:00,
2013-08-08 16:09:00,81.3,54.5,30.02,NW,311,0.0,5.0,78,0.00,,,0.17,meteohub,2013-08-08 20:09:00,
2013-08-08 16:14:00,81.5,54.5,30.02,NW,311,1.0,5.0,77,0.00,,,0.17,meteohub,2013-08-08 20:14:00,
2013-08-08 16:19:00,81.1,54.5,30.02,WNW,296,1.0,5.0,77,0.00,,,0.17,meteohub,2013-08-08 20:19:00,
2013-08-08 16:24:00,81.0,54.5,30.02,NW,314,4.0,4.0,77,0.00,,,0.17,meteohub,2013-08-08 20:24:00,
2013-08-08 16:29:00,80.4,54.5,30.02,NNW,338,0.0,2.0,77,0.00,,,0.17,meteohub,2013-08-08 20:29:00,
2013-08-08 16:34:00,80.4,54.5,30.01,NNW,331,0.0,5.0,78,0.00,,,0.17,meteohub,2013-08-08 20:34:00,
2013-08-08 16:39:00,80.4,54.5,30.01,NNW,331,0.0,5.0,76,0.00,,,0.17,meteohub,2013-08-08 20:39:00,
2013-08-08 16:44:00,80.4,54.5,30.01,NNE,14,0.0,5.0,77,0.00,,,0.17,meteohub,2013-08-08 20:44:00,
2013-08-08 16:49:00,80.2,54.5,30.01,NNE,17,1.0,5.0,78,0.00,,,0.17,meteohub,2013-08-08 20:49:00,
2013-08-08 16:54:00,80.2,54.5,30.01,NNE,17,0.0,5.0,78,0.00,,,0.17,meteohub,2013-08-08 20:54:00,
2013-08-08 16:59:00,80.1,54.3,30.01,NW,311,0.0,4.0,78,0.00,,,0.17,meteohub,2013-08-08 20:59:00,
2013-08-08 17:05:00,79.9,54.3,30.01,NW,311,0.0,2.0,79,0.00,,,0.17,meteohub,2013-08-08 21:05:00,
2013-08-08 17:10:00,79.9,54.3,30.01,West,267,0.0,3.0,78,0.00,,,0.17,meteohub,2013-08-08 21:10:00,
2013-08-08 17:15:00,79.9,54.3,30.01,WNW,290,1.0,4.0,79,0.00,,,0.17,meteohub,2013-08-08 21:15:00,
2013-08-08 17:20:00,79.9,54.3,30.01,WNW,290,0.0,4.0,79,0.00,,,0.17,meteohub,2013-08-08 21:20:00,
2013-08-08 17:25:00,79.7,54.0,30.01,NW,325,0.0,4.0,79,0.00,,,0.17,meteohub,2013-08-08 21:25:00,
2013-08-08 17:30:00,79.3,54.0,30.01,NW,319,0.0,3.0,79,0.00,,,0.17,meteohub,2013-08-08 21:30:00,
2013-08-08 17:35:00,79.3,54.0,30.00,NW,319,0.0,4.0,80,0.00,,,0.17,meteohub,2013-08-08 21:35:00,
2013-08-08 17:40:00,79.2,54.0,30.00,NW,319,0.0,4.0,81,0.00,,,0.17,meteohub,2013-08-08 21:40:00,
2013-08-08 17:46:00,79.0,53.8,30.01,NW,322,0.0,4.0,80,0.00,,,0.17,meteohub,2013-08-08 21:46:00,
2013-08-08 17:51:00,79.0,53.8,30.00,NW,322,0.0,1.0,81,0.00,,,0.17,meteohub,2013-08-08 21:51:00,
2013-08-08 17:56:00,78.8,53.8,30.00,NW,322,0.0,1.0,81,0.00,,,0.17,meteohub,2013-08-08 21:56:00,
2013-08-08 18:02:00,78.6,54.5,30.00,NW,321,0.0,2.0,81,0.00,,,0.17,meteohub,2013-08-08 22:02:00,
2013-08-08 18:07:00,78.6,54.5,30.00,NW,325,0.0,2.0,81,0.00,,,0.17,meteohub,2013-08-08 22:07:00,
2013-08-08 18:12:00,78.4,54.5,30.00,NW,325,0.0,2.0,82,0.00,,,0.17,meteohub,2013-08-08 22:12:00,
2013-08-08 18:17:00,78.3,54.5,30.00,NW,325,0.0,1.0,82,0.00,,,0.17,meteohub,2013-08-08 22:17:00,
2013-08-08 18:22:00,78.3,54.5,30.01,NW,325,0.0,1.0,83,0.00,,,0.17,meteohub,2013-08-08 22:22:00,
2013-08-08 18:27:00,78.4,54.5,30.00,NW,325,0.0,1.0,83,0.00,,,0.17,meteohub,2013-08-08 22:27:00,
2013-08-08 18:33:00,78.3,54.3,30.00,NW,325,0.0,1.0,83,0.00,,,0.17,meteohub,2013-08-08 22:33:00,
2013-08-08 18:38:00,78.1,53.6,30.00,NW,325,0.0,1.0,83,0.00,,,0.17,meteohub,2013-08-08 22:38:00,
2013-08-08 18:43:00,77.9,53.6,30.00,NW,325,0.0,1.0,84,0.00,,,0.17,meteohub,2013-08-08 22:43:00,
2013-08-08 18:48:00,77.5,53.6,30.00,NW,325,0.0,1.0,84,0.00,,,0.17,meteohub,2013-08-08 22:48:00,
2013-08-08 18:53:00,77.4,53.6,30.00,SSE,157,0.0,1.0,84,0.00,,,0.17,meteohub,2013-08-08 22:53:00,
2013-08-08 18:58:00,77.4,53.6,30.00,SSE,157,0.0,1.0,84,0.00,,,0.17,meteohub,2013-08-08 22:58:00,
2013-08-08 19:03:00,77.2,53.6,30.01,SSE,157,0.0,1.0,85,0.00,,,0.17,meteohub,2013-08-08 23:03:00,
2013-08-08 19:08:00,77.2,53.6,30.01,SSE,157,0.0,1.0,85,0.00,,,0.17,meteohub,2013-08-08 23:08:00,
2013-08-08 19:13:00,76.8,53.4,30.01,SSE,161,1.0,1.0,85,0.00,,,0.17,meteohub,2013-08-08 23:13:00,
2013-08-08 19:18:00,76.6,53.4,30.01,SSE,161,0.0,2.0,85,0.00,,,0.17,meteohub,2013-08-08 23:18:00,
2013-08-08 19:23:00,76.6,54.1,30.01,SSE,161,0.0,2.0,86,0.00,,,0.17,meteohub,2013-08-08 23:23:00,
2013-08-08 19:29:00,76.5,54.1,30.01,SSE,161,0.0,1.0,87,0.00,,,0.17,meteohub,2013-08-08 23:29:00,
2013-08-08 19:34:00,76.3,54.1,30.01,SSE,161,0.0,0.0,87,0.00,,,0.17,meteohub,2013-08-08 23:34:00,
2013-08-08 19:39:00,76.1,54.0,30.01,SSE,161,0.0,0.0,87,0.00,,,0.17,meteohub,2013-08-08 23:39:00,
2013-08-08 19:44:00,75.9,53.4,30.01,South,169,0.0,1.0,87,0.00,,,0.17,meteohub,2013-08-08 23:44:00,
2013-08-08 19:49:00,75.7,53.4,30.01,South,169,0.0,1.0,88,0.00,,,0.17,meteohub,2013-08-08 23:49:00,
2013-08-08 19:54:00,75.7,54.0,30.01,South,169,0.0,1.0,88,0.00,,,0.17,meteohub,2013-08-08 23:54:00,
2013-08-08 19:59:00,75.6,54.1,30.01,South,169,0.0,0.0,88,0.00,,,0.17,meteohub,2013-08-08 23:59:00,
2013-08-08 20:05:00,75.4,53.6,30.01,South,169,0.0,0.0,88,0.00,,,0.17,meteohub,2013-08-09 00:05:00,
2013-08-08 20:10:00,75.2,53.6,30.01,South,169,0.0,0.0,89,0.00,,,0.00,meteohub,2013-08-09 00:10:00,
2013-08-08 20:15:00,75.0,53.4,30.01,South,169,0.0,0.0,89,0.00,,,0.00,meteohub,2013-08-09 00:15:00,
2013-08-08 20:20:00,75.0,53.6,30.01,South,169,0.0,1.0,89,0.00,,,0.00,meteohub,2013-08-09 00:20:00,
2013-08-08 20:26:00,74.8,53.6,30.01,South,169,0.0,2.0,89,0.00,,,0.00,meteohub,2013-08-09 00:26:00,
2013-08-08 20:31:00,74.8,53.6,30.02,NW,306,0.0,2.0,89,0.00,,,0.00,meteohub,2013-08-09 00:31:00,
2013-08-08 20:36:00,74.7,53.6,30.03,NW,306,0.0,2.0,90,0.00,,,0.00,meteohub,2013-08-09 00:36:00,
2013-08-08 20:41:00,74.7,53.6,30.03,NW,306,0.0,2.0,90,0.00,,,0.00,meteohub,2013-08-09 00:41:00,
2013-08-08 20:46:00,74.5,53.6,30.03,NW,306,0.0,1.0,90,0.00,,,0.00,meteohub,2013-08-09 00:46:00,
2013-08-08 20:52:00,74.5,53.6,30.03,NW,306,0.0,1.0,90,0.00,,,0.00,meteohub,2013-08-09 00:52:00,
2013-08-08 20:57:00,74.3,53.6,30.04,NW,306,0.0,1.0,90,0.00,,,0.00,meteohub,2013-08-09 00:57:00,
2013-08-08 21:02:00,74.1,53.6,30.04,NW,306,0.0,0.0,91,0.00,,,0.00,meteohub,2013-08-09 01:02:00,
2013-08-08 21:07:00,74.1,53.6,30.04,NW,306,0.0,0.0,91,0.00,,,0.00,meteohub,2013-08-09 01:07:00,
2013-08-08 21:12:00,74.1,53.6,30.04,NW,306,0.0,0.0,91,0.00,,,0.00,meteohub,2013-08-09 01:12:00,
2013-08-08 21:17:00,73.9,53.6,30.04,NW,306,0.0,0.0,91,0.00,,,0.00,meteohub,2013-08-09 01:17:00,
2013-08-08 21:22:00,73.9,53.6,30.04,NW,306,0.0,0.0,91,0.00,,,0.00,meteohub,2013-08-09 01:22:00,
2013-08-08 21:27:00,73.9,53.6,30.04,NW,306,0.0,0.0,91,0.00,,,0.00,meteohub,2013-08-09 01:27:00,
2013-08-08 21:32:00,73.8,53.6,30.04,NW,306,0.0,0.0,91,0.00,,,0.00,meteohub,2013-08-09 01:32:00,
2013-08-08 21:37:00,73.8,53.4,30.04,WNW,302,0.0,1.0,91,0.00,,,0.00,meteohub,2013-08-09 01:37:00,
2013-08-08 21:42:00,73.8,53.4,30.04,WNW,302,0.0,4.0,91,0.00,,,0.00,meteohub,2013-08-09 01:42:00,
2013-08-08 21:47:00,73.6,53.4,30.04,WNW,302,0.0,4.0,92,0.00,,,0.00,meteohub,2013-08-09 01:47:00,
2013-08-08 21:52:00,73.6,53.4,30.03,WNW,302,0.0,4.0,92,0.00,,,0.00,meteohub,2013-08-09 01:52:00,
2013-08-08 21:57:00,73.4,53.4,30.03,WNW,302,0.0,1.0,92,0.00,,,0.00,meteohub,2013-08-09 01:57:00,
2013-08-08 22:02:00,73.4,53.2,30.03,WNW,302,0.0,0.0,92,0.00,,,0.00,meteohub,2013-08-09 02:02:00,
2013-08-08 22:08:00,73.2,53.2,30.03,WNW,302,0.0,0.0,92,0.00,,,0.00,meteohub,2013-08-09 02:08:00,
2013-08-08 22:13:00,73.2,53.2,30.03,WNW,302,0.0,0.0,92,0.00,,,0.00,meteohub,2013-08-09 02:13:00,
2013-08-08 22:18:00,73.2,53.2,30.03,WNW,302,0.0,0.0,92,0.00,,,0.00,meteohub,2013-08-09 02:18:00,
2013-08-08 22:23:00,73.2,53.2,30.03,WNW,302,0.0,1.0,92,0.00,,,0.00,meteohub,2013-08-09 02:23:00,
2013-08-08 22:28:00,73.0,54.0,30.03,WNW,302,0.0,1.0,92,0.00,,,0.00,meteohub,2013-08-09 02:28:00,
2013-08-08 22:33:00,73.0,54.0,30.03,WNW,302,0.0,1.0,93,0.00,,,0.00,meteohub,2013-08-09 02:33:00,
2013-08-08 22:38:00,73.0,53.2,30.02,WNW,302,0.0,1.0,93,0.00,,,0.00,meteohub,2013-08-09 02:38:00,
2013-08-08 22:44:00,73.0,53.8,30.02,WNW,302,0.0,0.0,93,0.00,,,0.00,meteohub,2013-08-09 02:44:00,
2013-08-08 22:49:00,72.9,53.8,30.02,WNW,302,1.0,0.0,93,0.00,,,0.00,meteohub,2013-08-09 02:49:00,
2013-08-08 22:54:00,73.0,53.8,30.03,WNW,302,0.0,0.0,93,0.00,,,0.00,meteohub,2013-08-09 02:54:00,
2013-08-08 22:59:00,73.0,53.8,30.02,WNW,302,0.0,1.0,93,0.00,,,0.00,meteohub,2013-08-09 02:59:00,
2013-08-08 23:04:00,73.0,53.8,30.02,West,268,0.0,1.0,93,0.00,,,0.00,meteohub,2013-08-09 03:04:00,
2013-08-08 23:09:00,73.0,53.8,30.02,West,268,0.0,2.0,93,0.00,,,0.00,meteohub,2013-08-09 03:09:00,
2013-08-08 23:14:00,73.0,53.8,30.02,NNE,22,0.0,2.0,93,0.00,,,0.00,meteohub,2013-08-09 03:14:00,
2013-08-08 23:20:00,73.2,53.1,30.02,NE,47,0.0,5.0,93,0.00,,,0.00,meteohub,2013-08-09 03:20:00,
2013-08-08 23:25:00,73.2,53.8,30.02,NNE,25,1.0,5.0,92,0.00,,,0.00,meteohub,2013-08-09 03:25:00,
2013-08-08 23:30:00,73.2,53.8,30.02,West,277,0.0,2.0,92,0.00,,,0.00,meteohub,2013-08-09 03:30:00,
2013-08-08 23:36:00,73.2,53.8,30.01,North,355,0.0,5.0,92,0.00,,,0.00,meteohub,2013-08-09 03:36:00,
2013-08-08 23:41:00,73.2,53.6,30.02,North,355,0.0,5.0,92,0.00,,,0.00,meteohub,2013-08-09 03:41:00,
2013-08-08 23:46:00,73.2,53.6,30.02,North,355,0.0,2.0,92,0.00,,,0.00,meteohub,2013-08-09 03:46:00,
2013-08-08 23:51:00,73.2,53.6,30.02,North,355,0.0,2.0,92,0.00,,,0.00,meteohub,2013-08-09 03:51:00,
2013-08-08 23:56:00,73.2,53.6,30.02,North,355,0.0,2.0,92,0.00,,,0.00,meteohub,2013-08-09 03:56:00,